Location: Ku?niki
(51.4449°N, 17.8974°E)
Time: 11:47:37
(UTC+00:00)

Lacrosse 4 Rocket - Pass Details

Date: 18 September 2020
Orbit: 543 x 616 km, 68.0° (Epoch: 31 October)

Event Time Altitude Azimuth Distance (km) Brightness Sun altitude
Rises 19:20:05 0° 328° (NNW) 2,717 6.0 -22.1°
Reaches altitude 10° 19:22:39 10° 344° (NNW) 1,822 4.6 -22.4°
Enters shadow 19:25:51 23° 36° (NE) 1,195 3.0 -22.8°
